Weather in Khromtau

Kazakhstan     50°15′28″N   58°25′58″E
temp.,
°C
wind,
m/s
gust,
m/s
humid.,
%
clouds,
%
prec.,
mm/h
press.,
hPa
HPBL,
m
22 april, thu
thu2223:00+5se495099 0.0 1034175
02:00+4se41055100 0.0 1034179
05:00+4sse31054100 0.0 1035240
08:00+5sse41050100 0.0 1035362
11:00+8sse6940100 0.1 1035627
14:00+11sse7933100 0.0 10341123
17:00+13sse8929100 0.0 10321459
20:00+10s4941100 0.0 1032258
23 april, fri
fri2323:00+7se31061100 0.4 1033544
02:00+7se3964100 0.2 1031291
05:00+6se41063100 0.2 1031239
08:00+7sse41162100 0.0 1031402
11:00+7sse7978100 1.3 1031567
14:00+8e5877100 4.0 1030888
17:00+12ese61050100 4.4 10271159
20:00+10ese81450100 0.0 1025467
24 april, sat
sat2423:00+9ese91749100 0.0 1022482
02:00+9se81648100 0.0 1020545
05:00+6sse91481100 0.9 1019914
08:00+7ese9166884 0.5 1017699
11:00+10se12154199 0.5 10141327
14:00+11ssw91273100 0.1 10121074
17:00+8wsw101283100 0.1 1013921
20:00+7w91286100 0.0 1015971
25 april, sun
sun2523:00+7w7138737 0.0 1016804
02:00+6w6129138 0.0 1018612
05:00+4w511945 0.0 1019277
08:00+7wsw610845 0.0 1020341
11:00+10sw61069100 0.0 1020538
14:00+16w81146100 0.0 10192232
17:00+15wsw91152100 0.0 10201676
20:00+12w71469100 0.0 1021727
26 april, mon
mon2623:00+10wsw4885100 0.1 1022354
02:00+9sw348786 0.0 102268
05:00+10sw3789100 0.4 1022212
08:00+11se3382100 0.0 1022169
11:00+14sse61063100 0.1 1020652
14:00+19ssw81134100 0.0 10171802
17:00+19wsw3637100 0.0 1016682
20:00+14ne6860100 0.0 1015204